Retour au catalogue

STARLINK-35203

ActifCommunicationsVLEO
NORAD 65498·PAYLOAD·🇺🇸 United States

Lancé Sep 5, 2025 depuis Cape Canaveral Space Force Station

Loading…

Prochains Passages (prochaines 24 heures)

TLE

FraisSource: CelesTrak SupGP

Époque: Sep 14, 2026, 20:45 UTC

1 65498C 25198G   26257.86506944 -.00054155  00000+0 -16003-2 0  2571
2 65498  53.1566 109.8502 0001300  92.5828  72.7252 15.34412411    15

Suivez STARLINK-35203 en temps réel avec AllMySat

Download on the App Store